Appleton, MN

3:44 AM CST on November 22, 2019 (GMT -0600)
Appleton Municipal

Weather History for KAQP - October, 2019

Change the Weather History Date:

Sunday, October 13, 2019

  Actual Average Record
Temperature  
Mean Temperature 37 °F -  
Max Temperature 42 °F 57 °F 66 °F (2000)
Min Temperature 30 °F 35 °F 23 °F (2002)
Degree Days  
Heating Degree Days 28    
Moisture  
Dew Point 30 °F    
Average Humidity 76    
Maximum Humidity 93    
Minimum Humidity 61    
Precipitation  
Precipitation 0.00 in - - ()
Sea Level Pressure  
Sea Level Pressure 29.82 in    
Wind  
Wind Speed 11 mph (WNW)    
Max Wind Speed 20 mph    
Max Gust Speed 24 mph    
Visibility 10 miles    
Events      
Averages and records for this station are not official NWS values.
T = Trace of Precipitation, MM = Missing Value Source: NWS Daily Summary

Daily Weather History Graph

Daily Weather History Graph

Search for Another Location

Airport or City:

Astronomy

Oct. 13, 2019 Rise Set
Actual Time 7:37 AM CDT 6:42 PM CDT
Civil Twilight 7:07 AM CDT 7:12 PM CDT
Nautical Twilight 6:33 AM CDT 7:46 PM CDT
Astronomical Twilight 5:59 AM CDT 8:20 PM CDT
Moon 7:08 PM CDT (10/13) 7:08 AM CDT (10/13)
Length of Visible Light 12h 04m
Length of Day
11h 05m
Full, 100% of the Moon is Illuminated
Oct 13
Full
Oct 13
Full
Oct 21
Last Quarter
Oct 27
New
Nov 4
First Quarter

Hourly Weather History & Observations

Time (CDT) Temp. Windchill Dew Point Humidity Pressure Visibility Wind Dir Wind Speed Gust Speed Precip Events Conditions
12:10 AM 35.6 °F 26.6 °F 28.4 °F 75% 29.68 in 10.0 mi West 13.8 mph 21.9 mph N/A   Overcast
12:30 AM 35.6 °F 26.6 °F 28.4 °F 75% 29.68 in 10.0 mi WNW 13.8 mph 23.0 mph N/A   Overcast
12:50 AM 35.6 °F 26.6 °F 28.4 °F 75% 29.68 in 10.0 mi WNW 13.8 mph 24.2 mph N/A   Overcast
1:11 AM 35.6 °F 24.8 °F 28.4 °F 75% 29.68 in 10.0 mi WNW 19.6 mph 23.0 mph N/A   Overcast
1:30 AM 35.6 °F 27.5 °F 28.4 °F 75% 29.68 in 10.0 mi West 11.5 mph 20.7 mph N/A   Overcast
1:51 AM 35.6 °F 27.5 °F 30.2 °F 81% 29.69 in 10.0 mi West 11.5 mph 16.1 mph N/A   Overcast
2:11 AM 35.6 °F - 30.2 °F 81% 29.69 in 10.0 mi Calm Calm - N/A   Overcast
2:31 AM 35.6 °F 29.2 °F 30.2 °F 81% 29.70 in 10.0 mi West 8.1 mph - N/A   Overcast
2:50 AM 35.6 °F 27.5 °F 30.2 °F 81% 29.70 in 10.0 mi West 11.5 mph 18.4 mph N/A   Overcast
3:10 AM 35.6 °F 28.6 °F 30.2 °F 81% 29.70 in 10.0 mi West 9.2 mph - N/A   Overcast
3:31 AM 35.6 °F 27.1 °F 30.2 °F 81% 29.71 in 10.0 mi West 12.7 mph 16.1 mph N/A   Overcast
3:51 AM 35.6 °F 29.2 °F 30.2 °F 81% 29.71 in 10.0 mi WNW 8.1 mph 18.4 mph N/A   Overcast
4:10 AM 35.6 °F 26.2 °F 30.2 °F 81% 29.71 in 10.0 mi West 15.0 mph 18.4 mph N/A   Overcast
4:31 AM 35.6 °F 27.1 °F 30.2 °F 81% 29.71 in 10.0 mi WNW 12.7 mph 23.0 mph N/A   Overcast
4:51 AM 35.6 °F 28.0 °F 30.2 °F 81% 29.71 in 10.0 mi WNW 10.4 mph 19.6 mph N/A   Overcast
5:11 AM 35.6 °F 27.1 °F 30.2 °F 81% 29.72 in 10.0 mi WNW 12.7 mph 20.7 mph N/A   Overcast
5:30 AM 35.6 °F 26.6 °F 30.2 °F 81% 29.73 in 10.0 mi WNW 13.8 mph 20.7 mph N/A   Overcast
5:50 AM 35.6 °F 29.2 °F 30.2 °F 81% 29.73 in 10.0 mi WNW 8.1 mph 19.6 mph N/A   Overcast
6:10 AM 35.6 °F 26.2 °F 28.4 °F 75% 29.73 in 10.0 mi WNW 15.0 mph 21.9 mph N/A   Overcast
6:31 AM 35.6 °F 26.6 °F 30.2 °F 81% 29.73 in 10.0 mi WNW 13.8 mph 21.9 mph N/A   Overcast
6:51 AM 35.6 °F 27.1 °F 30.2 °F 81% 29.73 in 10.0 mi WNW 12.7 mph 20.7 mph N/A   Overcast
7:10 AM 35.6 °F 26.2 °F 30.2 °F 81% 29.73 in 10.0 mi WNW 15.0 mph 19.6 mph N/A   Overcast
7:30 AM 35.6 °F 28.6 °F 30.2 °F 81% 29.74 in 10.0 mi WNW 9.2 mph 19.6 mph N/A   Overcast
7:51 AM 35.6 °F 26.6 °F 30.2 °F 81% 29.75 in 10.0 mi WNW 13.8 mph 21.9 mph N/A   Overcast
8:11 AM 35.6 °F 27.1 °F 30.2 °F 81% 29.74 in 10.0 mi WNW 12.7 mph 20.7 mph N/A   Overcast
8:31 AM 35.6 °F 29.2 °F 30.2 °F 81% 29.76 in 10.0 mi WNW 8.1 mph 18.4 mph N/A   Overcast
8:50 AM 35.6 °F 28.6 °F 30.2 °F 81% 29.76 in 10.0 mi WNW 9.2 mph 19.6 mph N/A   Overcast
9:11 AM 35.6 °F 27.1 °F 30.2 °F 81% 29.76 in 10.0 mi WNW 12.7 mph 18.4 mph N/A   Overcast
9:31 AM 35.6 °F 27.5 °F 28.4 °F 75% 29.77 in 10.0 mi WNW 11.5 mph 19.6 mph N/A   Overcast
9:51 AM 37.4 °F 28.5 °F 28.4 °F 70% 29.78 in 10.0 mi WNW 15.0 mph 21.9 mph N/A   Overcast
10:11 AM 37.4 °F 28.5 °F 28.4 °F 70% 29.79 in 10.0 mi NW 15.0 mph 20.7 mph N/A   Overcast
10:31 AM 37.4 °F 28.2 °F 28.4 °F 70% 29.80 in 10.0 mi NW 16.1 mph 23.0 mph N/A   Overcast
10:51 AM 37.4 °F 28.5 °F 28.4 °F 70% 29.81 in 10.0 mi NW 15.0 mph 20.7 mph N/A   Overcast
11:10 AM 37.4 °F 28.5 °F 30.2 °F 75% 29.81 in 10.0 mi NW 15.0 mph 23.0 mph N/A   Overcast
11:31 AM 37.4 °F 28.5 °F 30.2 °F 75% 29.81 in 10.0 mi WNW 15.0 mph 20.7 mph N/A   Overcast
11:50 AM 39.2 °F 30.8 °F 30.2 °F 70% 29.81 in 10.0 mi WNW 15.0 mph 21.9 mph N/A   Overcast
12:10 PM 39.2 °F 31.6 °F 30.2 °F 70% 29.82 in 10.0 mi WNW 12.7 mph 21.9 mph N/A   Overcast
12:31 PM 39.2 °F 32.5 °F 30.2 °F 70% 29.82 in 10.0 mi NW 10.4 mph 19.6 mph N/A   Overcast
12:51 PM 39.2 °F 31.2 °F 30.2 °F 70% 29.83 in 10.0 mi WNW 13.8 mph 20.7 mph N/A   Overcast
1:11 PM 39.2 °F 31.6 °F 30.2 °F 70% 29.83 in 10.0 mi WNW 12.7 mph 18.4 mph N/A   Overcast
1:30 PM 39.2 °F 31.2 °F 30.2 °F 70% 29.83 in 10.0 mi NW 13.8 mph 18.4 mph N/A   Overcast
1:50 PM 39.2 °F 32.0 °F 30.2 °F 70% 29.84 in 10.0 mi NW 11.5 mph 17.3 mph N/A   Overcast
2:10 PM 41.0 °F 36.4 °F 30.2 °F 65% 29.85 in 10.0 mi WNW 6.9 mph 17.3 mph N/A   Overcast
2:31 PM 41.0 °F 33.5 °F 30.2 °F 65% 29.85 in 10.0 mi WNW 13.8 mph 19.6 mph N/A   Overcast
2:51 PM 41.0 °F 37.1 °F 30.2 °F 65% 29.85 in 10.0 mi NW 5.8 mph 18.4 mph N/A   Overcast
3:11 PM 41.0 °F 33.9 °F 30.2 °F 65% 29.85 in 10.0 mi WNW 12.7 mph 17.3 mph N/A   Overcast
3:30 PM 42.8 °F 38.6 °F 30.2 °F 61% 29.85 in 10.0 mi WNW 6.9 mph - N/A   Overcast
3:51 PM 41.0 °F 33.9 °F 30.2 °F 65% 29.87 in 10.0 mi WNW 12.7 mph 19.6 mph N/A   Overcast
4:11 PM 41.0 °F 35.2 °F 30.2 °F 65% 29.87 in 10.0 mi NW 9.2 mph 19.6 mph N/A   Overcast
4:30 PM 41.0 °F 33.1 °F 30.2 °F 65% 29.88 in 10.0 mi WNW 15.0 mph 19.6 mph N/A   Overcast
4:51 PM 41.0 °F 37.1 °F 30.2 °F 65% 29.88 in 10.0 mi WNW 5.8 mph 18.4 mph N/A   Overcast
5:11 PM 41.0 °F 33.5 °F 30.2 °F 65% 29.88 in 10.0 mi West 13.8 mph - N/A   Overcast
5:30 PM 39.2 °F 32.0 °F 30.2 °F 70% 29.89 in 10.0 mi WNW 11.5 mph - N/A   Overcast
5:50 PM 39.2 °F 33.0 °F 30.2 °F 70% 29.89 in 10.0 mi West 9.2 mph 17.3 mph N/A   Overcast
6:11 PM 39.2 °F - 30.2 °F 70% 29.89 in 10.0 mi Calm Calm - N/A   Mostly Cloudy
6:31 PM 39.2 °F - 30.2 °F 70% 29.90 in 10.0 mi Calm Calm - N/A   Scattered Clouds
6:51 PM 39.2 °F - 30.2 °F 70% 29.91 in 10.0 mi Calm Calm - N/A   Mostly Cloudy
7:10 PM 39.2 °F - 30.2 °F 70% 29.92 in 10.0 mi Calm Calm - N/A   Overcast
7:30 PM 37.4 °F - 30.2 °F 75% 29.93 in 10.0 mi Calm Calm - N/A   Mostly Cloudy
7:50 PM 35.6 °F - 30.2 °F 81% 29.94 in 10.0 mi Calm Calm - N/A   Scattered Clouds
8:11 PM 35.6 °F - 30.2 °F 81% 29.94 in 10.0 mi Calm Calm - N/A   Scattered Clouds
8:31 PM 33.8 °F - 28.4 °F 81% 29.95 in 10.0 mi Calm Calm - N/A   Scattered Clouds
8:51 PM 33.8 °F - 28.4 °F 81% 29.95 in 10.0 mi Calm Calm - N/A   Clear
9:10 PM 32.0 °F - 28.4 °F 87% 29.96 in 10.0 mi Calm Calm - N/A   Clear
9:30 PM 32.0 °F - 28.4 °F 87% 29.96 in 10.0 mi Calm Calm - N/A   Clear
9:50 PM 33.8 °F - 30.2 °F 87% 29.96 in 10.0 mi Calm Calm - N/A   Clear
10:11 PM 33.8 °F - 30.2 °F 87% 29.96 in 10.0 mi Calm Calm - N/A   Clear
10:31 PM 33.8 °F - 30.2 °F 87% 29.96 in 10.0 mi Calm Calm - N/A   Clear
10:51 PM 33.8 °F - 30.2 °F 87% 29.96 in 10.0 mi Calm Calm - N/A   Clear
11:10 PM 33.8 °F - 30.2 °F 87% 29.96 in 10.0 mi Calm Calm - N/A   Clear
11:31 PM 32.0 °F - 30.2 °F 93% 29.96 in 10.0 mi Calm Calm - N/A   Clear
11:51 PM 30.2 °F - 28.4 °F 93% 29.96 in 10.0 mi Calm Calm - N/A   Scattered Clouds